| time (UTC) | temp F | wind direction | speed knots | gust knots | rain 1hr in | rain 24hr in | rain mn in | humidity % | barometer mb |
| 20260510153303 | 71 | 69 | 1.7 | 4.3 | 0.00 | 0.00 | 0.00 | 69 | 1015.7 |
| 20260510152801 | 71 | 59 | 1.7 | 3.5 | 0.00 | 0.00 | 0.00 | 71 | 1015.8 |
| 20260510152307 | 70 | 69 | 1.7 | 2.6 | 0.00 | 0.00 | 0.00 | 77 | 1015.7 |
| 20260510151801 | 70 | 80 | 0.9 | 2.6 | 0.00 | 0.00 | 0.00 | 77 | 1015.7 |
| 20260510151258 | 69 | 86 | 0.0 | 2.6 | 0.00 | 0.00 | 0.00 | 80 | 1015.8 |
| 20260510150756 | 69 | 121 | 0.0 | 1.7 | 0.00 | 0.00 | 0.00 | 78 | 1015.8 |
| 20260510150256 | 68 | 169 | 0.0 | 1.7 | 0.00 | 0.00 | 0.00 | 80 | 1015.7 |
| 20260510145755 | 68 | 199 | 0.9 | 1.7 | 0.00 | 0.00 | 0.00 | 79 | 1015.8 |
| 20260510145252 | 69 | 195 | 0.9 | 1.7 | 0.00 | 0.00 | 0.00 | 80 | 1015.7 |
| 20260510144750 | 69 | 75 | 0.0 | 1.7 | 0.00 | 0.00 | 0.00 | 80 | 1015.7 |
| 20260510144248 | 68 | 92 | 0.0 | 2.6 | 0.00 | 0.00 | 0.00 | 81 | 1015.6 |
| 20260510143750 | 68 | 68 | 1.7 | 2.6 | 0.00 | 0.00 | 0.00 | 79 | 1015.6 |
| 20260510143248 | 68 | 59 | 0.0 | 1.7 | 0.00 | 0.00 | 0.00 | 82 | 1015.5 |
| 20260510142749 | 67 | 111 | 0.0 | 1.7 | 0.00 | 0.00 | 0.00 | 80 | 1015.5 |
| 20260510142240 | 67 | 90 | 0.9 | 1.7 | 0.00 | 0.00 | 0.00 | 81 | 1015.3 |
| 20260510141740 | 66 | 85 | 0.9 | 1.7 | 0.00 | 0.00 | 0.00 | 82 | 1015.3 |
| 20260510141237 | 66 | 244 | 0.0 | 1.7 | 0.00 | 0.00 | 0.00 | 82 | 1015.3 |
| 20260510140737 | 65 | 96 | 0.9 | 2.6 | 0.00 | 0.00 | 0.00 | 82 | 1015.3 |
| 20260510140236 | 65 | 48 | 0.9 | 2.6 | 0.00 | 0.00 | 0.00 | 83 | 1015.2 |
| 20260510135737 | 65 | 92 | 0.0 | 1.7 | 0.00 | 0.00 | 0.00 | 81 | 1015.2 |
| 20260510135236 | 65 | 135 | 0.9 | 1.7 | 0.00 | 0.00 | 0.00 | 81 | 1015.2 |
| 20260510134734 | 65 | 99 | 0.0 | 1.7 | 0.00 | 0.00 | 0.00 | 81 | 1015.0 |
| 20260510134232 | 65 | 188 | 0.0 | 0.9 | 0.00 | 0.00 | 0.00 | 83 | 1014.9 |
| 20260510133732 | 65 | 148 | 0.0 | 1.7 | 0.00 | 0.00 | 0.00 | 82 | 1014.7 |
| 20260510133556 | 65 | 123 | 0.0 | 1.7 | 0.00 | 0.00 | 0.00 | 82 | 1014.6 |
| 20260510132730 | 64 | 75 | 0.0 | 1.7 | 0.00 | 0.00 | 0.00 | 84 | 1014.4 |
| 20260510132230 | 64 | 63 | 0.9 | 1.7 | 0.00 | 0.00 | 0.00 | 86 | 1014.4 |
| 20260510131730 | 63 | 128 | 0.0 | 1.7 | 0.00 | 0.00 | 0.00 | 86 | 1014.5 |
| 20260510131229 | 62 | 233 | 0.0 | 1.7 | 0.00 | 0.00 | 0.00 | 87 | 1014.5 |
| 20260510130726 | 62 | 233 | 0.0 | 1.7 | 0.00 | 0.00 | 0.00 | 86 | 1014.5 |
| 20260510130226 | 62 | 224 | 0.0 | 1.7 | 0.00 | 0.00 | 0.00 | 86 | 1014.5 |
| 20260510125721 | 63 | 223 | 0.0 | 1.7 | 0.00 | 0.00 | 0.00 | 82 | 1014.3 |
| 20260510125222 | 64 | 83 | 0.9 | 1.7 | 0.00 | 0.00 | 0.00 | 79 | 1014.3 |
| 20260510124720 | 63 | 80 | 0.0 | 1.7 | 0.00 | 0.00 | 0.00 | 80 | 1014.2 |
| 20260510124220 | 62 | 96 | 0.0 | 1.7 | 0.00 | 0.00 | 0.00 | 87 | 1014.2 |
| 20260510123721 | 61 | 354 | 0.0 | 0.0 | 0.00 | 0.00 | 0.00 | 87 | 1014.1 |
| 20260510123220 | 61 | 343 | 0.0 | 0.0 | 0.00 | 0.00 | 0.00 | 86 | 1014.1 |
| 20260510122719 | 61 | 345 | 0.0 | 1.7 | 0.00 | 0.00 | 0.00 | 85 | 1014.0 |
| 20260510122223 | 62 | 345 | 0.0 | 1.7 | 0.00 | 0.00 | 0.00 | 84 | 1014.0 |
| 20260510121721 | 61 | 0 | 0.0 | 0.9 | 0.00 | 0.00 | 0.00 | 83 | 1013.8 |
| 20260510121221 | 61 | 1 | 0.0 | 0.0 | 0.00 | 0.00 | 0.00 | 83 | 1013.8 |
| 20260510120720 | 62 | 6 | 0.0 | 0.0 | 0.00 | 0.00 | 0.00 | 83 | 1013.8 |
| 20260510120546 | 61 | 23 | 0.0 | 1.7 | 0.00 | 0.00 | 0.00 | 85 | 1013.6 |
| 20260510115721 | 60 | 23 | 0.0 | 1.7 | 0.00 | 0.00 | 0.00 | 88 | 1013.6 |
| 20260510115544 | 60 | 27 | 0.0 | 0.9 | 0.00 | 0.00 | 0.00 | 89 | 1013.7 |
| 20260510114721 | 59 | 261 | 0.0 | 0.0 | 0.00 | 0.00 | 0.00 | 89 | 1013.6 |
| 20260510114544 | 59 | 261 | 0.0 | 0.0 | 0.00 | 0.00 | 0.00 | 88 | 1013.5 |
| 20260510113722 | 60 | 261 | 0.0 | 1.7 | 0.00 | 0.00 | 0.00 | 87 | 1013.8 |
| 20260510113223 | 60 | 261 | 0.0 | 1.7 | 0.00 | 0.00 | 0.00 | 85 | 1013.8 |
| 20260510112721 | 61 | 141 | 0.0 | 1.7 | 0.00 | 0.00 | 0.00 | 82 | 1013.7 |
| 20260510112222 | 62 | 353 | 0.0 | 0.9 | 0.00 | 0.00 | 0.00 | 83 | 1013.6 |
| 20260510111957 | 61 | 45 | 0.0 | 0.0 | 0.00 | 0.00 | 0.00 | 82 | 1013.5 |
| 20260510111856 | 61 | 45 | 0.0 | 0.0 | 0.00 | 0.00 | 0.00 | 84 | 1013.6 |
| 20260510111619 | 62 | 45 | 0.0 | 0.0 | 0.00 | 0.00 | 0.00 | 81 | 1013.3 |
| 20260510111238 | 61 | 45 | 0.0 | 0.0 | 0.00 | 0.00 | 0.00 | 83 | 1013.6 |
| 20260510105723 | 61 | 45 | 0.0 | 0.0 | 0.00 | 0.00 | 0.00 | 81 | 1013.3 |
| 20260510105548 | 60 | 45 | 0.0 | 0.0 | 0.00 | 0.00 | 0.00 | 83 | 1013.3 |
| 20260510104722 | 61 | 45 | 0.0 | 0.0 | 0.00 | 0.00 | 0.00 | 81 | 1013.3 |
| 20260510104220 | 61 | 63 | 0.0 | 1.7 | 0.00 | 0.00 | 0.00 | 80 | 1013.4 |
| 20260510103721 | 61 | 63 | 0.0 | 1.7 | 0.00 | 0.00 | 0.00 | 79 | 1013.3 |
| 20260510103542 | 61 | 309 | 0.0 | 1.7 | 0.00 | 0.00 | 0.00 | 79 | 1013.1 |
| 20260510102720 | 60 | 68 | 0.0 | 1.7 | 0.00 | 0.00 | 0.00 | 80 | 1013.2 |
| 20260510102223 | 61 | 68 | 0.0 | 1.7 | 0.00 | 0.00 | 0.00 | 79 | 1013.2 |
| 20260510101722 | 61 | 68 | 0.0 | 0.0 | 0.00 | 0.00 | 0.00 | 79 | 1013.3 |
| 20260510101221 | 60 | 63 | 0.0 | 1.7 | 0.00 | 0.00 | 0.00 | 81 | 1013.0 |
| 20260510100723 | 60 | 1 | 0.9 | 1.7 | 0.00 | 0.00 | 0.00 | 84 | 1013.0 |
| 20260510100220 | 59 | 55 | 0.0 | 1.7 | 0.00 | 0.00 | 0.00 | 85 | 1012.8 |
| 20260510100045 | 59 | 59 | 0.0 | 0.9 | 0.00 | 0.00 | 0.00 | 87 | 1012.9 |
| 20260510095218 | 59 | 59 | 0.0 | 1.7 | 0.00 | 0.00 | 0.00 | 88 | 1012.9 |
| 20260510094718 | 59 | 59 | 0.0 | 1.7 | 0.00 | 0.00 | 0.00 | 88 | 1012.8 |
| 20260510094218 | 59 | 266 | 0.0 | 0.0 | 0.00 | 0.00 | 0.00 | 88 | 1012.8 |
| 20260510093716 | 59 | 266 | 0.0 | 0.9 | 0.00 | 0.00 | 0.00 | 86 | 1012.8 |
| 20260510093216 | 59 | 257 | 0.0 | 0.9 | 0.00 | 0.00 | 0.00 | 84 | 1012.8 |
| 20260510092714 | 60 | 97 | 0.0 | 0.9 | 0.00 | 0.00 | 0.00 | 83 | 1012.6 |
| 20260510092214 | 60 | 82 | 0.0 | 0.9 | 0.00 | 0.00 | 0.00 | 83 | 1012.5 |
| 20260510091709 | 59 | 82 | 0.0 | 1.7 | 0.00 | 0.00 | 0.00 | 84 | 1012.5 |
| 20260510091530 | 59 | 89 | 0.0 | 1.7 | 0.00 | 0.00 | 0.00 | 84 | 1012.5 |
| 20260510091049 | 59 | 148 | 0.0 | 0.0 | 0.00 | 0.00 | 0.00 | 84 | 1012.6 |
| 20260510090202 | 59 | 148 | 0.0 | 0.9 | 0.00 | 0.00 | 0.00 | 83 | 1012.6 |
| 20260510085704 | 60 | 62 | 0.0 | 1.7 | 0.00 | 0.00 | 0.00 | 82 | 1012.7 |
| 20260510085200 | 60 | 338 | 0.0 | 1.7 | 0.00 | 0.00 | 0.00 | 83 | 1012.7 |
| 20260510084704 | 59 | 137 | 0.0 | 0.0 | 0.00 | 0.00 | 0.00 | 83 | 1012.7 |
| 20260510084203 | 59 | 104 | 0.0 | 0.0 | 0.00 | 0.00 | 0.00 | 84 | 1012.5 |
| 20260510083859 | 59 | 278 | 0.0 | 0.0 | 0.00 | 0.00 | 0.00 | 83 | 1012.4 |
| 20260510083819 | 59 | 28 | 0.0 | 0.0 | 0.00 | 0.00 | 0.00 | 84 | 1012.5 |
| 20260510083031 | 59 | 278 | 0.0 | 0.0 | 0.00 | 0.00 | 0.00 | 82 | 1012.3 |
| 20260510082201 | 60 | 274 | 0.0 | 0.0 | 0.00 | 0.00 | 0.00 | 80 | 1012.2 |
| 20260510081856 | 61 | 11 | 0.0 | 1.7 | 0.00 | 0.00 | 0.00 | 78 | 1011.9 |
| 20260510081810 | 60 | 11 | 0.0 | 1.7 | 0.00 | 0.00 | 0.00 | 79 | 1012.0 |
| 20260510080708 | 61 | 11 | 0.9 | 1.7 | 0.00 | 0.00 | 0.00 | 79 | 1011.9 |
| 20260510080203 | 60 | 24 | 0.9 | 1.7 | 0.00 | 0.00 | 0.00 | 79 | 1011.9 |
| 20260510075702 | 60 | 10 | 0.0 | 1.7 | 0.00 | 0.00 | 0.00 | 81 | 1011.8 |
| 20260510075201 | 60 | 100 | 0.0 | 1.7 | 0.00 | 0.00 | 0.00 | 82 | 1011.8 |
| 20260510074702 | 60 | 271 | 0.0 | 1.7 | 0.00 | 0.00 | 0.00 | 81 | 1011.8 |
| 20260510074202 | 60 | 275 | 0.0 | 1.7 | 0.00 | 0.00 | 0.00 | 82 | 1012.0 |
| 20260510073702 | 60 | 0 | 0.0 | 1.7 | 0.00 | 0.00 | 0.00 | 80 | 1012.0 |
| 20260510073202 | 60 | 0 | 0.0 | 1.7 | 0.00 | 0.00 | 0.00 | 83 | 1012.1 |
| 20260510072702 | 60 | 127 | 0.0 | 1.7 | 0.00 | 0.00 | 0.00 | 83 | 1012.2 |
| 20260510072203 | 60 | 172 | 0.0 | 1.7 | 0.00 | 0.00 | 0.00 | 82 | 1012.2 |
| 20260510071701 | 60 | 42 | 0.0 | 0.0 | 0.00 | 0.00 | 0.00 | 81 | 1012.2 |
| 20260510071529 | 60 | 79 | 0.0 | 0.0 | 0.00 | 0.00 | 0.00 | 81 | 1012.1 |
| 20260510070702 | 60 | 79 | 0.0 | 0.0 | 0.00 | 0.00 | 0.00 | 78 | 1012.1 |
| 20260510070531 | 60 | 79 | 0.0 | 0.0 | 0.00 | 0.00 | 0.00 | 77 | 1012.2 |
| 20260510065701 | 61 | 79 | 0.0 | 0.0 | 0.00 | 0.00 | 0.00 | 76 | 1012.2 |
| 20260510065202 | 60 | 79 | 0.0 | 0.0 | 0.00 | 0.00 | 0.00 | 76 | 1012.2 |
| 20260510064702 | 61 | 79 | 0.0 | 1.7 | 0.00 | 0.00 | 0.00 | 76 | 1012.3 |
| 20260510064202 | 61 | 103 | 0.0 | 1.7 | 0.00 | 0.00 | 0.00 | 75 | 1012.3 |
| 20260510063701 | 62 | 7 | 0.0 | 0.0 | 0.00 | 0.00 | 0.00 | 72 | 1012.2 |
| 20260510063204 | 62 | 0 | 0.0 | 0.0 | 0.00 | 0.00 | 0.00 | 71 | 1012.2 |
| 20260510062704 | 63 | 0 | 0.0 | 1.7 | 0.00 | 0.00 | 0.00 | 70 | 1012.3 |
| 20260510062202 | 63 | 0 | 0.0 | 1.7 | 0.00 | 0.00 | 0.00 | 70 | 1012.2 |
| 20260510061702 | 62 | 1 | 0.9 | 0.9 | 0.00 | 0.00 | 0.00 | 71 | 1012.2 |
| 20260510061203 | 61 | 73 | 0.0 | 0.0 | 0.00 | 0.00 | 0.00 | 74 | 1012.4 |
| 20260510060701 | 62 | 73 | 0.0 | 0.0 | 0.00 | 0.00 | 0.00 | 72 | 1012.5 |
| 20260510060203 | 63 | 73 | 0.0 | 0.9 | 0.00 | 0.00 | 0.00 | 70 | 1012.3 |
| 20260510055701 | 63 | 61 | 0.0 | 1.7 | 0.00 | 0.00 | 0.00 | 70 | 1012.4 |
| 20260510055202 | 63 | 61 | 0.0 | 1.7 | 0.00 | 0.00 | 0.00 | 68 | 1012.3 |
| 20260510054701 | 63 | 37 | 0.0 | 1.7 | 0.00 | 0.00 | 0.00 | 68 | 1012.2 |
| 20260510054202 | 63 | 4 | 0.0 | 0.9 | 0.00 | 0.00 | 0.00 | 67 | 1012.2 |
| 20260510053702 | 63 | 24 | 0.0 | 1.7 | 0.00 | 0.00 | 0.00 | 69 | 1012.1 |
| 20260510053201 | 64 | 44 | 0.9 | 1.7 | 0.00 | 0.00 | 0.00 | 67 | 1012.1 |
| 20260510052850 | 65 | 357 | 0.0 | 1.7 | 0.00 | 0.00 | 0.00 | 64 | 1012.1 |
| 20260510052806 | 64 | 14 | 0.0 | 1.7 | 0.00 | 0.00 | 0.00 | 65 | 1012.1 |
| 20260510051702 | 66 | 210 | 0.9 | 1.7 | 0.00 | 0.00 | 0.00 | 62 | 1012.2 |
| 20260510051204 | 67 | 316 | 0.0 | 1.7 | 0.00 | 0.00 | 0.00 | 59 | 1012.1 |
| 20260510050702 | 68 | 99 | 0.0 | 1.7 | 0.00 | 0.00 | 0.00 | 58 | 1012.0 |
| 20260510050553 | 68 | 257 | 0.0 | 1.7 | 0.00 | 0.00 | 0.00 | 58 | 1012.0 |
| 20260510045702 | 69 | 248 | 0.0 | 1.7 | 0.00 | 0.00 | 0.00 | 56 | 1012.0 |
| 20260510045202 | 69 | 283 | 0.0 | 2.6 | 0.00 | 0.00 | 0.00 | 56 | 1011.9 |
| 20260510045026 | 69 | 289 | 0.9 | 2.6 | 0.00 | 0.00 | 0.00 | 56 | 1011.7 |
| 20260510044203 | 68 | 276 | 0.9 | 1.7 | 0.00 | 0.00 | 0.00 | 57 | 1011.7 |
| 20260510043702 | 68 | 172 | 0.0 | 1.7 | 0.00 | 0.00 | 0.00 | 57 | 1011.6 |
| 20260510043202 | 69 | 169 | 0.0 | 2.6 | 0.00 | 0.00 | 0.00 | 57 | 1011.6 |
| 20260510042704 | 69 | 144 | 0.9 | 2.6 | 0.00 | 0.00 | 0.00 | 55 | 1011.6 |
| 20260510042202 | 69 | 210 | 0.9 | 2.6 | 0.00 | 0.00 | 0.00 | 55 | 1011.6 |
| 20260510041701 | 69 | 240 | 0.9 | 2.6 | 0.00 | 0.00 | 0.00 | 55 | 1011.5 |
| 20260510041529 | 69 | 235 | 0.0 | 2.6 | 0.00 | 0.00 | 0.00 | 55 | 1011.6 |
| 20260510040703 | 70 | 266 | 0.9 | 2.6 | 0.00 | 0.00 | 0.00 | 55 | 1011.6 |
| 20260510040200 | 70 | 247 | 0.9 | 3.5 | 0.00 | 0.00 | 0.00 | 55 | 1011.5 |
| 20260510035659 | 70 | 212 | 1.7 | 3.5 | 0.00 | 0.00 | 0.00 | 55 | 1011.6 |
| 20260510035201 | 70 | 207 | 0.0 | 4.3 | 0.00 | 0.00 | 0.00 | 54 | 1011.6 |
| 20260510034653 | 71 | 252 | 0.9 | 4.3 | 0.00 | 0.00 | 0.00 | 53 | 1011.7 |
| 20260510034153 | 71 | 224 | 0.9 | 8.7 | 0.00 | 0.00 | 0.00 | 53 | 1011.6 |
| 20260510033652 | 71 | 235 | 0.9 | 8.7 | 0.00 | 0.00 | 0.00 | 53 | 1011.5 |
| 20260510033149 | 71 | 220 | 0.9 | 2.6 | 0.00 | 0.00 | 0.00 | 53 | 1011.6 |
| 20260510032650 | 71 | 220 | 0.9 | 2.6 | 0.00 | 0.00 | 0.00 | 53 | 1011.6 |
| 20260510032144 | 71 | 235 | 0.9 | 1.7 | 0.00 | 0.00 | 0.00 | 54 | 1011.6 |
| 20260510032011 | 71 | 231 | 0.9 | 5.2 | 0.00 | 0.00 | 0.00 | 54 | 1011.6 |
| 20260510031145 | 71 | 168 | 1.7 | 5.2 | 0.00 | 0.00 | 0.00 | 54 | 1011.5 |
| 20260510030952 | 71 | 221 | 1.7 | 2.6 | 0.00 | 0.00 | 0.00 | 55 | 1011.5 |
| 20260510030138 | 71 | 206 | 0.0 | 3.5 | 0.00 | 0.00 | 0.00 | 55 | 1011.4 |
| 20260510025638 | 71 | 217 | 0.0 | 3.5 | 0.00 | 0.00 | 0.00 | 55 | 1011.5 |
| 20260510025137 | 71 | 116 | 0.0 | 0.0 | 0.00 | 0.00 | 0.00 | 57 | 1011.4 |
| 20260510024637 | 71 | 142 | 0.0 | 1.7 | 0.00 | 0.00 | 0.00 | 56 | 1011.4 |
| 20260510024135 | 71 | 188 | 0.0 | 1.7 | 0.00 | 0.00 | 0.00 | 55 | 1011.3 |
| 20260510023630 | 72 | 188 | 0.0 | 1.7 | 0.00 | 0.00 | 0.00 | 55 | 1011.1 |
| 20260510023509 | 71 | 183 | 0.0 | 0.9 | 0.00 | 0.00 | 0.00 | 56 | 1011.1 |
| 20260510022630 | 71 | 147 | 0.0 | 0.0 | 0.00 | 0.00 | 0.00 | 56 | 1011.1 |
| 20260510022129 | 71 | 147 | 0.0 | 0.0 | 0.00 | 0.00 | 0.00 | 56 | 1011.1 |
| 20260510021630 | 72 | 147 | 0.0 | 0.0 | 0.00 | 0.00 | 0.00 | 55 | 1011.0 |
| 20260510021130 | 72 | 145 | 0.0 | 1.7 | 0.00 | 0.00 | 0.00 | 55 | 1010.9 |
| 20260510020628 | 72 | 168 | 0.0 | 1.7 | 0.00 | 0.00 | 0.00 | 54 | 1010.8 |
| 20260510020128 | 73 | 109 | 0.0 | 1.7 | 0.00 | 0.00 | 0.00 | 53 | 1010.8 |
| 20260510015620 | 73 | 49 | 0.9 | 1.7 | 0.00 | 0.00 | 0.00 | 52 | 1010.6 |
| 20260510015121 | 73 | 140 | 0.0 | 1.7 | 0.00 | 0.00 | 0.00 | 52 | 1010.7 |
| 20260510014620 | 74 | 65 | 0.0 | 1.7 | 0.00 | 0.00 | 0.00 | 51 | 1010.5 |
| 20260510014118 | 74 | 85 | 0.9 | 1.7 | 0.00 | 0.00 | 0.00 | 51 | 1010.5 |
| 20260510013618 | 74 | 76 | 0.0 | 1.7 | 0.00 | 0.00 | 0.00 | 50 | 1010.4 |
| 20260510013123 | 74 | 97 | 0.0 | 1.7 | 0.00 | 0.00 | 0.00 | 50 | 1010.3 |
| 20260510012619 | 74 | 182 | 0.0 | 1.7 | 0.00 | 0.00 | 0.00 | 49 | 1010.3 |
| 20260510012119 | 74 | 111 | 0.9 | 1.7 | 0.00 | 0.00 | 0.00 | 49 | 1010.4 |
| 20260510011621 | 75 | 137 | 0.0 | 1.7 | 0.00 | 0.00 | 0.00 | 48 | 1010.2 |
| 20260510011122 | 75 | 144 | 0.0 | 1.7 | 0.00 | 0.00 | 0.00 | 48 | 1010.2 |
| 20260510010620 | 75 | 165 | 0.0 | 1.7 | 0.00 | 0.00 | 0.00 | 47 | 1010.2 |
| 20260510010121 | 76 | 203 | 0.9 | 2.6 | 0.00 | 0.00 | 0.00 | 46 | 1010.1 |
| 20260510005621 | 76 | 190 | 0.9 | 2.6 | 0.00 | 0.00 | 0.00 | 46 | 1010.1 |
| 20260510005442 | 76 | 176 | 0.0 | 2.6 | 0.00 | 0.00 | 0.00 | 44 | 1010.1 |
| 20260510004621 | 76 | 164 | 0.9 | 2.6 | 0.00 | 0.00 | 0.00 | 43 | 1009.9 |
| 20260510004121 | 77 | 147 | 0.9 | 3.5 | 0.00 | 0.00 | 0.00 | 43 | 1009.9 |
| 20260510003620 | 77 | 223 | 1.7 | 3.5 | 0.00 | 0.00 | 0.00 | 41 | 1009.8 |
| 20260510003121 | 77 | 155 | 0.9 | 1.7 | 0.00 | 0.00 | 0.00 | 41 | 1009.8 |
| 20260510002946 | 78 | 178 | 0.0 | 1.7 | 0.00 | 0.00 | 0.00 | 39 | 1009.7 |
| 20260510002119 | 78 | 172 | 0.9 | 1.7 | 0.00 | 0.00 | 0.00 | 39 | 1009.7 |
| 20260510001621 | 78 | 178 | 0.0 | 1.7 | 0.00 | 0.00 | 0.00 | 39 | 1009.5 |
| 20260510001122 | 79 | 164 | 0.0 | 1.7 | 0.00 | 0.00 | 0.00 | 38 | 1009.5 |
| 20260510000620 | 79 | 199 | 0.0 | 1.7 | 0.00 | 0.00 | 0.00 | 37 | 1009.5 |
| 20260510000121 | 79 | 159 | 0.0 | 2.6 | 0.00 | 0.00 | 0.00 | 36 | 1009.5 |
| 20260509235620 | 79 | 175 | 0.9 | 2.6 | 0.00 | 0.00 | 0.00 | 36 | 1009.4 |
| 20260509235120 | 80 | 148 | 0.0 | 3.5 | 0.00 | 0.00 | 0.00 | 35 | 1009.5 |
| 20260509234621 | 80 | 175 | 0.9 | 3.5 | 0.00 | 0.00 | 0.00 | 35 | 1009.4 |
| 20260509234321 | 80 | 214 | 0.9 | 3.5 | 0.00 | 0.00 | 0.00 | 35 | 1009.3 |
| 20260509234232 | 80 | 185 | 1.7 | 3.5 | 0.00 | 0.00 | 0.00 | 35 | 1009.4 |
| 20260509233122 | 81 | 179 | 0.9 | 1.7 | 0.00 | 0.00 | 0.00 | 35 | 1009.3 |
| 20260509232939 | 81 | 90 | 0.0 | 2.6 | 0.00 | 0.00 | 0.00 | 34 | 1009.3 |
| 20260509232448 | 81 | 171 | 0.9 | 2.6 | 0.00 | 0.00 | 0.00 | 33 | 1009.3 |
| 20260509231621 | 81 | 164 | 0.0 | 2.6 | 0.00 | 0.00 | 0.00 | 36 | 1009.3 |
| 20260509231121 | 82 | 203 | 0.9 | 2.6 | 0.00 | 0.00 | 0.00 | 33 | 1009.4 |
| 20260509230619 | 82 | 76 | 1.7 | 2.6 | 0.00 | 0.00 | 0.00 | 34 | 1009.4 |
| 20260509230121 | 82 | 179 | 0.0 | 2.6 | 0.00 | 0.00 | 0.00 | 33 | 1009.3 |
| 20260509225619 | 82 | 178 | 1.7 | 3.5 | 0.00 | 0.00 | 0.00 | 31 | 1009.2 |
| 20260509225120 | 82 | 234 | 0.9 | 3.5 | 0.00 | 0.00 | 0.00 | 32 | 1009.3 |
| 20260509224622 | 82 | 216 | 1.7 | 3.5 | 0.00 | 0.00 | 0.00 | 30 | 1009.2 |
| 20260509224445 | 82 | 169 | 1.7 | 2.6 | 0.00 | 0.00 | 0.00 | 30 | 1009.1 |
| 20260509223619 | 82 | 203 | 0.0 | 5.2 | 0.00 | 0.00 | 0.00 | 30 | 1009.0 |
| 20260509223119 | 82 | 165 | 1.7 | 5.2 | 0.00 | 0.00 | 0.00 | 30 | 1009.0 |
| 20260509222618 | 82 | 172 | 2.6 | 5.2 | 0.00 | 0.00 | 0.00 | 29 | 1008.9 |
| 20260509222121 | 83 | 161 | 1.7 | 3.5 | 0.00 | 0.00 | 0.00 | 32 | 1008.9 |
| 20260509221621 | 83 | 78 | 0.9 | 2.6 | 0.00 | 0.00 | 0.00 | 34 | 1009.0 |
| 20260509221120 | 82 | 182 | 0.9 | 3.5 | 0.00 | 0.00 | 0.00 | 35 | 1009.0 |
| 20260509220620 | 83 | 127 | 1.7 | 4.3 | 0.00 | 0.00 | 0.00 | 34 | 1009.0 |
| 20260509220120 | 83 | 210 | 1.7 | 4.3 | 0.00 | 0.00 | 0.00 | 33 | 1008.9 |
| 20260509220004 | 83 | 190 | 1.7 | 4.3 | 0.00 | 0.00 | 0.00 | 32 | 1008.9 |
| 20260509215120 | 82 | 220 | 0.9 | 4.3 | 0.00 | 0.00 | 0.00 | 32 | 1008.9 |
| 20260509214620 | 83 | 166 | 1.7 | 4.3 | 0.00 | 0.00 | 0.00 | 32 | 1008.9 |
| 20260509214120 | 83 | 133 | 1.7 | 4.3 | 0.00 | 0.00 | 0.00 | 33 | 1009.0 |
| 20260509213621 | 82 | 269 | 1.7 | 3.5 | 0.00 | 0.00 | 0.00 | 33 | 1009.0 |
| 20260509213442 | 83 | 165 | 1.7 | 3.5 | 0.00 | 0.00 | 0.00 | 31 | 1009.0 |
| 20260509212621 | 83 | 72 | 1.7 | 2.6 | 0.00 | 0.00 | 0.00 | 32 | 1009.0 |
| 20260509212120 | 83 | 193 | 0.9 | 3.5 | 0.00 | 0.00 | 0.00 | 31 | 1009.1 |
| 20260509211621 | 83 | 219 | 1.7 | 3.5 | 0.00 | 0.00 | 0.00 | 33 | 1009.2 |
| 20260509211120 | 83 | 148 | 0.0 | 2.6 | 0.00 | 0.00 | 0.00 | 32 | 1009.3 |
| 20260509210619 | 83 | 175 | 0.0 | 2.6 | 0.00 | 0.00 | 0.00 | 34 | 1009.3 |
| 20260509210121 | 83 | 128 | 0.0 | 2.6 | 0.00 | 0.00 | 0.00 | 31 | 1009.3 |
| 20260509205619 | 83 | 172 | 0.9 | 5.2 | 0.00 | 0.00 | 0.00 | 34 | 1009.3 |
| 20260509205447 | 83 | 255 | 1.7 | 5.2 | 0.00 | 0.00 | 0.00 | 33 | 1009.4 |
| 20260509204944 | 83 | 90 | 1.7 | 3.5 | 0.00 | 0.00 | 0.00 | 31 | 1009.4 |
| 20260509204121 | 83 | 168 | 0.9 | 6.1 | 0.00 | 0.00 | 0.00 | 35 | 1009.5 |
| 20260509203620 | 83 | 149 | 2.6 | 6.1 | 0.00 | 0.00 | 0.00 | 33 | 1009.4 |
| 20260509203120 | 83 | 110 | 1.7 | 3.5 | 0.00 | 0.00 | 0.00 | 32 | 1009.6 |
| 20260509202615 | 83 | 133 | 1.7 | 3.5 | 0.00 | 0.00 | 0.00 | 34 | 1009.6 |
| 20260509202436 | 84 | 358 | 0.9 | 2.6 | 0.00 | 0.00 | 0.00 | 35 | 1009.6 |
| 20260509201615 | 83 | 196 | 0.9 | 3.5 | 0.00 | 0.00 | 0.00 | 36 | 1009.6 |
| 20260509201113 | 83 | 107 | 0.9 | 3.5 | 0.00 | 0.00 | 0.00 | 33 | 1009.6 |
| 20260509200936 | 83 | 228 | 1.7 | 2.6 | 0.00 | 0.00 | 0.00 | 32 | 1009.7 |
| 20260509200113 | 83 | 219 | 1.7 | 2.6 | 0.00 | 0.00 | 0.00 | 33 | 1009.7 |
| 20260509195610 | 83 | 257 | 1.7 | 2.6 | 0.00 | 0.00 | 0.00 | 33 | 1009.8 |
| 20260509195110 | 83 | 171 | 0.9 | 2.6 | 0.00 | 0.00 | 0.00 | 32 | 1009.7 |
| 20260509194930 | 83 | 151 | 0.9 | 3.5 | 0.00 | 0.00 | 0.00 | 37 | 1009.8 |
| 20260509194107 | 82 | 102 | 0.9 | 3.5 | 0.00 | 0.00 | 0.00 | 32 | 1009.9 |
| 20260509193607 | 82 | 312 | 0.0 | 2.6 | 0.00 | 0.00 | 0.00 | 33 | 1010.0 |
| 20260509193106 | 82 | 185 | 0.9 | 3.5 | 0.00 | 0.00 | 0.00 | 32 | 1010.0 |
| 20260509192605 | 82 | 93 | 2.6 | 4.3 | 0.00 | 0.00 | 0.00 | 34 | 1010.0 |
| 20260509192104 | 83 | 76 | 1.7 | 5.2 | 0.00 | 0.00 | 0.00 | 33 | 1010.1 |
| 20260509191602 | 83 | 125 | 1.7 | 6.1 | 0.00 | 0.00 | 0.00 | 36 | 1010.0 |
| 20260509191312 | 83 | 72 | 3.5 | 6.1 | 0.00 | 0.00 | 0.00 | 36 | 1009.9 |
| 20260509191214 | 83 | 107 | 3.5 | 6.1 | 0.00 | 0.00 | 0.00 | 34 | 1010.0 |
| 20260509185602 | 82 | 185 | 0.9 | 3.5 | 0.00 | 0.00 | 0.00 | 40 | 1010.1 |
| 20260509185102 | 81 | 206 | 1.7 | 3.5 | 0.00 | 0.00 | 0.00 | 36 | 1010.1 |
| 20260509184600 | 82 | 265 | 2.6 | 3.5 | 0.00 | 0.00 | 0.00 | 40 | 1010.2 |
| 20260509184424 | 82 | 224 | 1.7 | 2.6 | 0.00 | 0.00 | 0.00 | 44 | 1010.3 |
| 20260509183908 | 82 | 158 | 1.7 | 4.3 | 0.00 | 0.00 | 0.00 | 40 | 1010.4 |
| 20260509183417 | 82 | 193 | 2.6 | 4.3 | 0.00 | 0.00 | 0.00 | 44 | 1010.4 |
| 20260509182551 | 81 | 109 | 2.6 | 3.5 | 0.00 | 0.00 | 0.00 | 39 | 1010.4 |
| 20260509182049 | 82 | 176 | 1.7 | 2.6 | 0.00 | 0.00 | 0.00 | 42 | 1010.4 |
| 20260509181549 | 81 | 310 | 0.9 | 3.5 | 0.00 | 0.00 | 0.00 | 42 | 1010.5 |
| 20260509181049 | 80 | 135 | 0.0 | 3.5 | 0.00 | 0.00 | 0.00 | 42 | 1010.6 |
| 20260509180546 | 81 | 106 | 0.9 | 3.5 | 0.00 | 0.00 | 0.00 | 50 | 1010.5 |
| 20260509180046 | 80 | 76 | 1.7 | 3.5 | 0.00 | 0.00 | 0.00 | 46 | 1010.5 |
| 20260509175545 | 80 | 134 | 0.9 | 4.3 | 0.00 | 0.00 | 0.00 | 45 | 1010.5 |
| 20260509175044 | 80 | 79 | 2.6 | 4.3 | 0.00 | 0.00 | 0.00 | 42 | 1010.5 |
| 20260509174543 | 80 | 79 | 1.7 | 2.6 | 0.00 | 0.00 | 0.00 | 43 | 1010.4 |
| 20260509174408 | 81 | 351 | 0.9 | 2.6 | 0.00 | 0.00 | 0.00 | 44 | 1010.4 |
| 20260509173543 | 80 | 214 | 0.9 | 3.5 | 0.00 | 0.00 | 0.00 | 47 | 1010.4 |
| 20260509173404 | 79 | 200 | 1.7 | 3.5 | 0.00 | 0.00 | 0.00 | 46 | 1010.4 |
| 20260509172540 | 79 | 314 | 1.7 | 3.5 | 0.00 | 0.00 | 0.00 | 49 | 1010.4 |
| 20260509172038 | 79 | 121 | 0.9 | 3.5 | 0.00 | 0.00 | 0.00 | 44 | 1010.5 |
| 20260509171538 | 78 | 85 | 0.0 | 2.6 | 0.00 | 0.00 | 0.00 | 47 | 1010.4 |
| 20260509171034 | 79 | 118 | 0.9 | 4.3 | 0.00 | 0.00 | 0.00 | 45 | 1010.5 |
| 20260509170535 | 80 | 38 | 1.7 | 4.3 | 0.00 | 0.00 | 0.00 | 49 | 1010.6 |
| 20260509170033 | 80 | 338 | 0.9 | 2.6 | 0.00 | 0.00 | 0.00 | 48 | 1010.5 |
| 20260509165529 | 78 | 82 | 0.0 | 2.6 | 0.00 | 0.00 | 0.00 | 53 | 1010.4 |
| 20260509165353 | 79 | 8 | 0.0 | 4.3 | 0.00 | 0.00 | 0.00 | 52 | 1010.4 |
| 20260509164531 | 79 | 104 | 1.7 | 4.3 | 0.00 | 0.00 | 0.00 | 52 | 1010.4 |
| 20260509164029 | 78 | 96 | 0.9 | 4.3 | 0.00 | 0.00 | 0.00 | 48 | 1010.4 |
| 20260509163850 | 78 | 125 | 1.7 | 2.6 | 0.00 | 0.00 | 0.00 | 57 | 1010.4 |
| 20260509163030 | 77 | 1 | 0.9 | 6.1 | 0.00 | 0.00 | 0.00 | 53 | 1010.5 |
| 20260509162613 | 76 | 71 | 4.3 | 6.1 | 0.00 | 0.00 | 0.00 | 56 | 1010.5 |
| 20260509162554 | 77 | 312 | 1.7 | 6.1 | 0.00 | 0.00 | 0.00 | 53 | 1010.5 |
| 20260509162135 | 78 | 49 | 1.7 | 6.1 | 0.00 | 0.00 | 0.00 | 53 | 1010.5 |
| 20260509161029 | 76 | 0 | 0.0 | 3.5 | 0.00 | 0.00 | 0.00 | 56 | 1010.5 |
| 20260509160850 | 76 | 250 | 0.9 | 3.5 | 0.00 | 0.00 | 0.00 | 60 | 1010.5 |
| 20260509160349 | 76 | 243 | 2.6 | 3.5 | 0.00 | 0.00 | 0.00 | 56 | 1010.4 |
| 20260509155537 | 76 | 312 | 0.9 | 3.5 | 0.00 | 0.00 | 0.00 | 60 | 1010.5 |
| 20260509155029 | 75 | 69 | 0.9 | 2.6 | 0.00 | 0.00 | 0.00 | 60 | 1010.5 |
| 20260509154530 | 74 | 72 | 0.9 | 2.6 | 0.00 | 0.00 | 0.00 | 60 | 1010.4 |
| 20260509154028 | 76 | 25 | 0.9 | 3.5 | 0.00 | 0.00 | 0.00 | 64 | 1010.5 |